Location: Wolf Lake
(46.8518°N, 80.6381°W)
Time: 22:42:33
(UTC-04:00)

ISS - Visible Passes

Search period start: 12 July 2024 00:00
Search period end: 22 July 2024 00:00
Orbit: 410 x 424 km, 51.6° (Epoch: 12 July)

Date Brightness Start Highest point End Pass type
(mag) Time Alt. Az. Time Alt. Az. Time Alt. Az.
12 Jul -2.2 00:02:32 10° WNW 00:05:40 37° N 00:08:48 10° ENE visible
12 Jul -2.4 01:39:43 10° WNW 01:42:53 41° NNE 01:46:05 10° E visible
12 Jul -3.9 03:16:29 10° WNW 03:19:47 61° SSW 03:23:05 10° SE visible
12 Jul -1.7 04:55:21 10° WSW 04:55:57 10° SW 04:56:34 10° SW visible
12 Jul -2.5 23:14:13 10° W 23:17:24 43° NNW 23:20:36 10° ENE visible
13 Jul -2.2 00:51:30 10° WNW 00:54:37 36° N 00:57:44 10° ENE visible
13 Jul -3.8 02:28:17 10° WNW 02:31:24 76° WNW 02:31:24 76° WNW visible
13 Jul -3.0 22:25:52 10° W 22:29:08 54° NNW 22:32:24 10° ENE visible
14 Jul -2.1 00:03:13 10° WNW 00:06:18 34° N 00:09:23 10° ENE visible
14 Jul -3.4 01:40:07 10° WNW 01:43:19 63° N 01:43:19 63° N visible
14 Jul -2.1 23:14:52 10° WNW 23:17:57 34° N 23:21:03 10° ENE visible
15 Jul -2.9 00:51:54 10° WNW 00:55:09 48° NNE 00:55:56 39° ENE visible
15 Jul -1.0 02:28:44 10° WNW 02:28:48 10° WNW 02:28:48 10° WNW visible
15 Jul -2.2 22:26:28 10° W 22:29:36 37° N 22:32:44 10° ENE visible
16 Jul -2.5 00:03:39 10° WNW 00:06:49 40° NNE 00:08:48 19° ENE visible
16 Jul -1.8 01:40:25 10° WNW 01:41:40 21° WNW 01:41:40 21° WNW visible
16 Jul -2.2 23:15:21 10° WNW 23:18:27 35° N 23:21:33 10° ENE visible
17 Jul -3.1 00:52:08 10° WNW 00:54:40 49° WNW 00:54:40 49° WNW visible
17 Jul -2.1 22:26:58 10° WNW 22:30:02 34° N 22:33:07 10° ENE visible
18 Jul -3.4 00:03:52 10° WNW 00:07:10 62° NNE 00:07:43 51° ENE visible
18 Jul -2.9 23:15:33 10° WNW 23:18:47 47° NNE 23:20:49 20° E visible
19 Jul -1.8 00:52:23 10° WNW 00:53:42 21° W 00:53:42 21° W visible
19 Jul -2.5 22:27:13 10° WNW 22:30:22 39° N 22:33:31 10° E visible
20 Jul -3.5 00:03:58 10° WNW 00:06:49 57° WSW 00:06:49 57° WSW visible
20 Jul -3.8 23:15:36 10° WNW 23:18:56 83° NNE 23:19:58 41° ESE visible
21 Jul -3.4 22:27:14 10° WNW 22:30:31 59° NNE 22:33:09 15° E visible
